Regional Weather Roundup
Issued by NWS Glasgow, MT

Home | Current Version | Previous Version | Text Only | Print | Product List | Glossary On
Versions: 1 2 3 4 5 6 7 8 9 10 11 12 13 14 15 16 17 18 19 20 21 22 23 24 25 26 27
000
ASUS45 KGGW 231915
RWRGGW
HOURLY REGIONAL WEATHER ROUNDUP FOR NORTHEAST MONTANA
NATIONAL WEATHER SERVICE GLASGOW MONTANA
100 PM MDT MON OCT 23 2017

NOTE: "FAIR" INDICATES FEW OR NO CLOUDS BELOW 12,000 FEET WITH NO
SIGNIFICANT WEATHER AND/OR OBSTRUCTIONS TO VISISBILITY.

NORTHEAST MONTANA


CITY           SKY/WX    TMP DP  RH WIND       PRES   REMARKS
GLASGOW        SUNNY     56  27  32 NW17      30.34R
WOLF POINT     SUNNY     59  26  28 NW28G40   30.31R
JORDAN           N/A     57  24  28 NW22G36   30.37R
WINNETT          N/A     55  20  25 W22G38      N/A
SIDNEY         MOSUNNY   57  27  31 NW29G39   30.25R
GLENDIVE       SUNNY     56  27  32 NW30G37   30.30R
SCOBEY           N/A     53  24  32 NW26G32   30.24R

FORT PECK REPORTS


CITY           SKY/WX    TMP DP  RH WIND       PRES   REMARKS
FORT PECK        N/A     53  27  36 W18G29      N/A
THE PINES        N/A     57  25  29 NW12G21     N/A

SOUTHEAST MONTANA


CITY           SKY/WX    TMP DP  RH WIND       PRES   REMARKS
BILLINGS       MOSUNNY   57  22  25 NW21G30   30.48R
MILES CITY     SUNNY     58  26  29 NW24G36   30.36R
BAKER          MOSUNNY   56  26  31 NW32G43   30.31R
LIVINGSTON     SUNNY     53  20  27 W25G33    30.54R

CENTRAL MONTANA


CITY           SKY/WX    TMP DP  RH WIND       PRES   REMARKS
HAVRE          SUNNY     57  22  25 NW22G29   30.44R
LEWISTOWN      MOSUNNY   51  20  29 NW17G31   30.48R
GREAT FALLS    SUNNY     55  19  24 W20G31    30.51R
CUT BANK       SUNNY     54  16  22 NW17G29   30.49R
HELENA         SUNNY     53  26  35 W25G32    30.57S
BUTTE          SUNNY     46  22  38 NW16G23   30.61S
BOZEMAN        MOSUNNY   52  24  33 NW8       30.59R

WESTERN MONTANA


CITY           SKY/WX    TMP DP  RH WIND       PRES   REMARKS
MISSOULA       CLOUDY    51  33  50 VRB5      30.67R
KALISPELL      NOT AVBL

NORTH DAKOTA


CITY           SKY/WX    TMP DP  RH WIND       PRES   REMARKS
WILLISTON      MOSUNNY   56  27  32 NW31G44   30.22R
DICKINSON      MOSUNNY   56  27  32 NW30G40   30.18R
MINOT          CLOUDY    54  35  48 W24G37    30.07S
BISMARCK       PTSUNNY   54  35  48 NW17G28   30.12F

SOUTHERN SASKATCHEWAN


CITY           SKY/WX    TMP DP  RH WIND       PRES   REMARKS
REGINA         MOSUNNY   50  34  53 NW28G35   30.20R
MOOSE JAW      MOSUNNY   52  30  43 NW25G35   30.25R
ESTEVAN        MOSUNNY   50  34  53 NW32G40   30.15R
SWIFT CURRENT  SUNNY     50  30  46 NW26G33   30.32R





USA.gov is the U.S. government's official web portal to all federal, state and local government web resources and services.